[[{"header":{"parameterUnit":"m.s-1","parameterCategory":1,"la1":30.2991,"la2":30.254,"lo1":-89.0895,"lo2":-89.0444,"dy":0.0017,"dx":0.0017,"nx":28,"ny":28,"refTime":"2025-12-27T03:00:00:Z","depth":0,"parameterNumber":2,"parameterNumberName":"U-component_of_WINDS"},"data":[0,0,0,0,0,0,0,0,0,0,0,0,0,0,0,0,0,0,0,0,0,0,0,0,0,0,0,0,0,0,0,0,0,0,0,0,0,0,0,0,0,0,0,0,0,0,0,0,0,0,0,0,0,0,0,0,0,0,-1.4994,-1.4993,0,-1.4988,-1.4988,-1.4987,-1.495,-1.4949,-1.4948,-1.4947,-1.494,-1.4941,-1.4942,0,0,0,0,0,0,0,0,0,0,0,0,0,-1.497,-1.4971,-1.4994,-1.4993,-1.4993,-1.4988,-1.4988,-1.4987,-1.495,-1.4949,-1.4948,-1.4947,-1.494,-1.4941,-1.4942,0,0,0,0,0,0,0,0,0,0,0,0,0,-1.4974,-1.4971,-1.4994,-1.4974,-1.4972,-1.4988,-1.4987,-1.4987,-1.495,-1.4949,-1.4948,-1.4946,-1.494,-1.4941,-1.4942,-1.4975,0,0,-1.4945,-1.4945,0,0,0,0,0,0,0,0,-1.4974,-1.4975,-1.4977,-1.4975,-1.4973,-1.4968,-1.4977,-1.4983,-1.4951,-1.4959,-1.4947,-1.4946,-1.4951,-1.4951,-1.4952,-1.4975,-1.4974,-1.4945,-1.4945,-1.4946,-1.4946,0,0,0,0,0,0,0,-1.4974,-1.4975,-1.4991,-1.4977,-1.4975,-1.4965,-1.4964,-1.4978,-1.4962,-1.4958,-1.4955,-1.4955,-1.4949,-1.4952,-1.4952,-1.4974,-1.4945,-1.4946,-1.4946,-1.4947,-1.502,-1.5022,0,0,0,0,0,0,-1.4976,-1.4975,-1.4991,-1.4991,-1.497,-1.4966,-1.4965,-1.4971,-1.4962,-1.4959,-1.4956,-1.4953,-1.4951,-1.4951,-1.4952,-1.4988,-1.4946,-1.4947,-1.4947,-1.5019,-1.5021,-1.5022,0,0,0,0,0,0,-1.4976,-1.4978,-1.4992,-1.4982,-1.4983,-1.4968,-1.4975,-1.4972,-1.4974,-1.4961,-1.4958,-1.4961,-1.495,-1.495,-1.4969,-1.4987,-1.4947,-1.4948,-1.5018,-1.502,-1.5022,-1.5062,0,0,0,0,0,0,-1.4976,-1.4978,-1.4991,-1.4983,-1.4984,-1.501,-1.4976,-1.4973,-1.4976,-1.4972,-1.4965,-1.4962,-1.4949,-1.4968,-1.497,-1.4988,-1.4949,-1.5016,-1.5018,-1.5021,-1.5059,-1.5065,-1.507,0,0,0,0,0,-1.4975,-1.5003,-1.4992,-1.4994,-1.5,-1.5011,-1.5011,-1.4995,-1.4978,-1.499,-1.4981,-1.4963,-1.4985,-1.497,-1.4972,-1.4991,-1.5015,-1.5018,-1.5021,-1.5056,-1.5064,-1.507,0,0,0,0,0,0,-1.5015,-1.5002,-1.499,-1.5016,-1.5015,-1.5005,-1.502,-1.5004,-1.5008,-1.5004,-1.4983,-1.4982,-1.5003,-1.4999,-1.4982,-1.5021,-1.4996,-1.5,-1.5023,-1.503,-1.5035,-1.5035,-1.495,0,0,0,0,0,-1.5027,-1.5037,-1.5025,-1.505,-1.505,-1.5035,-1.5039,-1.5027,-1.5024,-1.5024,-1.5016,-1.5014,-1.502,-1.5025,-1.503,-1.5058,-1.5055,-1.5072,-1.5078,-1.5082,-1.5085,-1.5097,-1.5104,-1.5032,-1.5032,-1.5032,0,0,-1.5051,-1.5046,-1.5054,-1.5058,-1.5055,-1.5065,-1.5035,-1.5048,-1.5054,-1.5025,-1.5042,-1.5037,-1.5033,-1.5055,-1.5065,-1.5053,-1.5104,-1.5086,-1.509,-1.509,-1.5101,-1.5108,-1.5114,-1.5034,-1.5034,-1.5034,0,0,-1.5101,-1.5099,-1.5118,-1.5116,-1.5112,-1.5102,-1.5106,-1.5098,-1.5093,-1.511,-1.5087,-1.5095,-1.5107,-1.5104,-1.5105,-1.5152,-1.5134,-1.5154,-1.5184,-1.5196,-1.5201,-1.5206,-1.522,-1.5226,-1.5157,-1.5158,-1.5158,0,-1.5132,-1.5147,-1.513,-1.5143,-1.5145,-1.5119,-1.5137,-1.5136,-1.5134,-1.5135,-1.5121,-1.5134,-1.513,-1.5151,-1.5162,-1.5164,-1.5167,-1.5154,-1.5202,-1.5207,-1.5211,-1.5224,-1.523,-1.516,-1.516,-1.5159,-1.5159,0,-1.5184,-1.5195,-1.5211,-1.5209,-1.5212,-1.5228,-1.5212,-1.5218,-1.5205,-1.5196,-1.5211,-1.5205,-1.5208,-1.5212,-1.52,-1.523,-1.5222,-1.5206,-1.518,-1.522,-1.5232,-1.5238,-1.5163,-1.5162,-1.5162,-1.5161,0,0,-1.5259,-1.5247,-1.5252,-1.525,-1.5244,-1.5251,-1.5265,-1.5267,-1.5271,-1.5271,-1.5281,-1.5291,-1.5275,-1.5275,-1.5262,-1.5273,-1.5307,-1.5254,-1.5254,-1.5262,-1.5338,-1.5349,-1.5355,-1.5296,-1.5297,-1.5298,-1.5337,0,-1.5305,-1.5328,-1.5312,-1.5338,-1.5346,-1.5321,-1.5332,-1.5329,-1.5321,-1.5326,-1.5316,-1.5323,-1.5302,-1.5302,-1.5311,-1.5301,-1.5322,-1.5298,-1.5303,-1.5304,-1.5303,-1.5362,-1.5375,-1.5412,-1.5342,-1.5343,-1.5344,0,-1.5362,-1.5363,-1.5389,-1.5378,-1.5381,-1.5392,-1.5392,-1.5398,-1.5393,-1.5386,-1.5385,-1.5369,-1.538,-1.5357,-1.5371,-1.5356,-1.5357,-1.5352,-1.5353,-1.5351,-1.5325,-1.536,-1.5424,-1.5429,-1.5352,-1.5351,-1.535,0,-1.5411,-1.5419,-1.5435,-1.5434,-1.5423,-1.5431,-1.5427,-1.542,-1.5422,-1.5422,-1.5422,-1.5424,-1.5424,-1.5424,-1.5408,-1.5393,-1.5424,-1.5399,-1.5417,-1.5417,-1.5423,-1.5423,-1.5486,-1.5427,-1.5427,-1.5427,-1.5427,0,-1.5463,-1.5479,-1.5457,-1.5466,-1.5483,-1.5464,-1.5481,-1.5474,-1.5469,-1.5476,-1.5455,-1.5461,-1.544,-1.5445,-1.5432,-1.5444,-1.5445,-1.5439,-1.5435,-1.544,-1.544,-1.5439,-1.5435,-1.5429,-1.5428,-1.5428,-1.5428,0,-1.552,-1.5506,-1.5521,-1.5509,-1.5506,-1.5519,-1.5508,-1.5516,-1.5506,-1.5515,-1.5516,-1.5499,-1.5503,-1.5487,-1.5489,-1.548,-1.5498,-1.5491,-1.55,-1.5497,-1.5514,-1.5512,-1.5577,-1.5584,-1.5523,-1.5523,-1.5524,0,-1.5553,-1.5565,-1.5554,-1.5557,-1.5553,-1.5559,-1.556,-1.5542,-1.5544,-1.5538,-1.5546,-1.5548,-1.5548,-1.5555,-1.5543,-1.5543,-1.5534,-1.5557,-1.5534,-1.5538,-1.5532,-1.553,-1.553,-1.5561,-1.5562,-1.5563,-1.5563,0,-1.5613,-1.5605,-1.5608,-1.5607,-1.5609,-1.5608,-1.5606,-1.561,-1.5589,-1.5592,-1.5596,-1.5596,-1.5597,-1.5598,-1.5595,-1.559,-1.5572,-1.5571,-1.5574,-1.5578,-1.5582,-1.5578,-1.5511,-1.5569,-1.5568,-1.5568,-1.5568,-1.5567,-1.5658,-1.5666,-1.5659,-1.5662,-1.5658,-1.5656,-1.5662,-1.5652,-1.5654,-1.5653,-1.5642,-1.5647,-1.564,-1.5634,-1.563,-1.5633,-1.5622,-1.5628,-1.5629,-1.563,-1.5632,-1.5583,-1.5633,-1.5633,-1.5632,-1.5632,-1.5632,0,-1.5714,-1.5708,-1.5711,-1.5708,-1.571,-1.5694,-1.569,-1.5692,-1.5697,-1.5692,-1.5692,-1.5695,-1.5696,-1.5683,-1.5682,-1.5687,-1.5678,-1.5687,-1.5685,-1.5684,-1.5643,-1.5639,-1.5693,-1.5693,-1.5693,-1.5693,-1.5693,-1.5693,-1.5744,-1.5756,-1.5747,-1.5757,-1.575,-1.5755,-1.5754,-1.5751,-1.5746,-1.575,-1.5751,-1.5743,-1.5734,-1.5732,-1.5731,-1.5727,-1.5727,-1.5737,-1.5731,-1.5693,-1.5687,-1.5681,-1.5677,-1.5738,-1.5738,-1.577,-1.5771,-1.5771]},{"header":{"parameterUnit":"m.s-1","parameterCategory":1,"la1":30.2991,"la2":30.254,"lo1":-89.0895,"lo2":-89.0444,"dy":0.0017,"dx":0.0017,"nx":28,"ny":28,"refTime":"2025-12-27T03:00:00:Z","depth":0,"parameterNumber":3,"parameterNumberName":"V-component_of_WINDS"},"data":[0,0,0,0,0,0,0,0,0,0,0,0,0,0,0,0,0,0,0,0,0,0,0,0,0,0,0,0,0,0,0,0,0,0,0,0,0,0,0,0,0,0,0,0,0,0,0,0,0,0,0,0,0,0,0,0,0,0,1.8093,1.8094,0,1.8198,1.82,1.8201,1.8236,1.8236,1.8235,1.8235,1.8346,1.8349,1.8353,0,0,0,0,0,0,0,0,0,0,0,0,0,1.7926,1.7929,1.8093,1.8094,1.8095,1.8198,1.82,1.8201,1.8236,1.8236,1.8235,1.8235,1.8345,1.8349,1.8353,0,0,0,0,0,0,0,0,0,0,0,0,0,1.8012,1.793,1.8092,1.8125,1.8129,1.8198,1.82,1.8202,1.8236,1.8236,1.8235,1.8234,1.8344,1.8349,1.8354,1.8399,0,0,1.8369,1.8371,0,0,0,0,0,0,0,0,1.8007,1.8018,1.8119,1.8123,1.8128,1.8203,1.8182,1.8268,1.8237,1.8196,1.8235,1.8234,1.8299,1.8308,1.833,1.8404,1.8409,1.837,1.8373,1.8375,1.8376,0,0,0,0,0,0,0,1.8001,1.8014,1.8135,1.812,1.8126,1.8136,1.8148,1.8198,1.825,1.8199,1.8202,1.8214,1.8302,1.8325,1.8332,1.841,1.837,1.8374,1.8377,1.8379,1.853,1.8531,0,0,0,0,0,0,1.7989,1.8008,1.8131,1.8138,1.8064,1.814,1.8152,1.818,1.825,1.826,1.8214,1.8215,1.8316,1.8326,1.8336,1.8396,1.8375,1.838,1.8383,1.8529,1.8531,1.8532,0,0,0,0,0,0,1.7985,1.7999,1.8127,1.8074,1.8091,1.8143,1.8174,1.8182,1.8205,1.8261,1.8271,1.8228,1.8316,1.8329,1.8384,1.84,1.8382,1.8387,1.8528,1.853,1.8531,1.8514,0,0,0,0,0,0,1.798,1.7998,1.8014,1.8074,1.8094,1.8171,1.8175,1.8185,1.8213,1.8215,1.8276,1.8286,1.8317,1.8376,1.8389,1.8407,1.8391,1.8527,1.8529,1.8531,1.8513,1.8515,1.8516,0,0,0,0,0,1.7974,1.8005,1.8015,1.8029,1.8115,1.8172,1.8183,1.8217,1.8214,1.8233,1.8269,1.8284,1.8396,1.8381,1.8396,1.8416,1.8526,1.8528,1.8531,1.8513,1.8514,1.8516,0,0,0,0,0,0,1.7946,1.8013,1.8025,1.8076,1.8118,1.8177,1.8201,1.8217,1.8261,1.8261,1.8302,1.8316,1.8367,1.8397,1.8379,1.8465,1.8462,1.8467,1.8444,1.8446,1.8447,1.8439,1.8395,0,0,0,0,0,1.7946,1.7985,1.8042,1.8082,1.8102,1.8148,1.8174,1.8196,1.8242,1.826,1.83,1.8345,1.839,1.8419,1.8464,1.8517,1.8533,1.8539,1.854,1.8541,1.8545,1.8579,1.8583,1.8539,1.8539,1.8539,0,0,1.7946,1.7987,1.801,1.8077,1.8112,1.8154,1.8162,1.8205,1.8237,1.8267,1.8321,1.8352,1.8404,1.8459,1.8485,1.8485,1.8561,1.8544,1.8544,1.8548,1.8582,1.8586,1.8589,1.854,1.854,1.854,0,0,1.7967,1.8002,1.804,1.8075,1.8128,1.8158,1.8168,1.8225,1.8247,1.8302,1.8326,1.8365,1.8442,1.8479,1.8508,1.8547,1.8563,1.856,1.8567,1.8599,1.8603,1.8606,1.8622,1.8627,1.8564,1.8564,1.8564,0,1.7961,1.8023,1.8057,1.81,1.813,1.8158,1.8198,1.8231,1.8297,1.8318,1.8317,1.8416,1.8453,1.8518,1.8528,1.8549,1.8563,1.8554,1.8599,1.8603,1.8606,1.8622,1.8628,1.8563,1.8563,1.8564,1.8564,0,1.8014,1.8057,1.8081,1.8143,1.8176,1.8217,1.826,1.8289,1.831,1.8341,1.8398,1.8444,1.85,1.8517,1.8537,1.8586,1.8585,1.8591,1.8589,1.861,1.8625,1.8631,1.8563,1.8563,1.8563,1.8563,0,0,1.8019,1.8102,1.811,1.814,1.8202,1.8237,1.828,1.8334,1.836,1.8405,1.8444,1.8509,1.8516,1.8549,1.8574,1.8602,1.8633,1.8605,1.8607,1.8611,1.8693,1.8689,1.8695,1.8644,1.8645,1.8646,1.8689,0,1.805,1.8128,1.8161,1.8225,1.8267,1.8295,1.8334,1.8377,1.8408,1.8449,1.8484,1.8531,1.8535,1.8556,1.8584,1.8623,1.865,1.862,1.8683,1.8685,1.867,1.8703,1.8699,1.8737,1.8695,1.8696,1.8697,0,1.8096,1.8141,1.8209,1.8268,1.8287,1.832,1.8375,1.8413,1.8463,1.8484,1.8522,1.8546,1.8595,1.859,1.866,1.8638,1.8666,1.8689,1.8692,1.87,1.8693,1.8714,1.875,1.8757,1.8707,1.8706,1.8705,0,1.8096,1.8174,1.8225,1.8249,1.8319,1.8343,1.8373,1.8423,1.8455,1.8502,1.8524,1.8576,1.8606,1.8647,1.8685,1.8677,1.8753,1.8749,1.8773,1.8772,1.8789,1.8787,1.8831,1.8803,1.8803,1.8803,1.8803,0,1.8128,1.8168,1.8226,1.8258,1.8305,1.8345,1.8391,1.8424,1.8468,1.8509,1.8536,1.8574,1.8621,1.8666,1.8696,1.8751,1.8763,1.8783,1.8791,1.8782,1.878,1.8802,1.8801,1.8805,1.8804,1.8804,1.8804,0,1.8136,1.8176,1.8234,1.8296,1.8313,1.8345,1.8399,1.8432,1.8465,1.8516,1.853,1.8582,1.8636,1.8678,1.8748,1.8768,1.8827,1.8835,1.881,1.8814,1.8837,1.8835,1.8898,1.8909,1.8871,1.8872,1.8872,0,1.8154,1.8186,1.8252,1.8281,1.8311,1.8356,1.8389,1.843,1.8463,1.8525,1.8551,1.8606,1.8653,1.8738,1.8783,1.8837,1.8848,1.8866,1.8856,1.8847,1.8851,1.885,1.8854,1.8868,1.8868,1.8868,1.8868,0,1.8183,1.8202,1.8247,1.83,1.8338,1.8382,1.8427,1.8449,1.8499,1.8535,1.859,1.8626,1.8698,1.8754,1.8814,1.8847,1.8867,1.8871,1.888,1.8872,1.8857,1.8868,1.8815,1.887,1.887,1.8869,1.8869,1.8869,1.8198,1.8229,1.8281,1.8332,1.837,1.8412,1.8446,1.8484,1.8531,1.8592,1.8614,1.8671,1.8724,1.8806,1.884,1.8887,1.8889,1.8901,1.8904,1.8907,1.8907,1.8848,1.8898,1.8898,1.8898,1.8898,1.8898,0,1.823,1.8265,1.8311,1.8374,1.8414,1.8429,1.848,1.8513,1.8563,1.8611,1.8656,1.8722,1.8777,1.8827,1.8885,1.8913,1.8924,1.8927,1.8926,1.8934,1.8902,1.8889,1.8917,1.8917,1.8917,1.8917,1.8917,1.8917,1.8251,1.8306,1.8331,1.8406,1.8442,1.8498,1.8526,1.8566,1.8604,1.8676,1.8722,1.8754,1.8803,1.8865,1.8917,1.8931,1.8952,1.8953,1.8969,1.8938,1.8936,1.8934,1.8922,1.8957,1.8957,1.8999,1.8999,1.8999]}]]